Location: Burgwalden
(48.2830°N, 10.7576°E)
Time: 01:25:56
(UTC+00:00)

MSX - Pass Details

Date: 26 September 2023
Orbit: 895 x 905 km, 98.9° (Epoch: 01 December)

Event Time Altitude Azimuth Distance (km) Brightness Sun altitude
Rises 01:49:35 0° 12° (NNE) 3,523 7.6 -31.5°
Reaches altitude 10° 01:52:01 10° 10° (N) 2,579 6.8 -31.2°
Enters shadow 01:56:31 53° 342° (NNW) 1,098 4.3 -30.6°
